QPF
0.02 0.01 0.01 0.00 0.00 0.01 0.02 0.01 0.01 0.03 0.03 0.02 0.02 0.03 0.04 0.04 0.04 0.05 0.04 0.04 0.05 0.04 0.04 0.04 0.04 0.04 0.05 0.04 0.04 0.05 0.06 0.09 0.11 0.10 0.12 0.10 0.10 0.11 0.10 0.11 0.10 0.09 0.07
0.02 0.01 0.01 0.01 0.01 0.02 0.03 0.03 0.03 0.04 0.05 0.04 0.03 0.04 0.04 0.03 0.03 0.04 0.04 0.05 0.05 0.04 0.03 0.05 0.07 0.07 0.06 0.06 0.05 0.04 0.06 0.08 0.09 0.08 0.09 0.10 0.12 0.11 0.09 0.10 0.09 0.07 0.07
0.02 0.02 0.01 0.01 0.01 0.01 0.02 0.03 0.03 0.03 0.04 0.05 0.06 0.06 0.06 0.05 0.04 0.04 0.04 0.05 0.05 0.05 0.06 0.06 0.07 0.08 0.06 0.05 0.05 0.05 0.05 0.05 0.07 0.07 0.07 0.08 0.08 0.08 0.08 0.08 0.08 0.08 0.06
0.01 0.01 0.01 0.01 0.01 0.01 0.01 0.02 0.02 0.02 0.03 0.04 0.05 0.06 0.06 0.04 0.04 0.04 0.04 0.04 0.05 0.05 0.07 0.08 0.07 0.07 0.07 0.07 0.06 0.05 0.05 0.05 0.05 0.06 0.07 0.06 0.06 0.07 0.09 0.08 0.08 0.08 0.07
0.00 0.01 0.01 0.01 0.01 0.01 0.01 0.01 0.01 0.02 0.02 0.03 0.04 0.05 0.06 0.05 0.04 0.03 0.03 0.04 0.04 0.04 0.05 0.06 0.07 0.07 0.08 0.09 0.07 0.05 0.05 0.05 0.05 0.05 0.05 0.05 0.06 0.08 0.08 0.08 0.09 0.08 0.08
0.00 0.00 0.01 0.01 0.01 0.01 0.01 0.01 0.02 0.02 0.03 0.04 0.04 0.05 0.05 0.04 0.04 0.04 0.03 0.03 0.04 0.03 0.03 0.04 0.04 0.04 0.06 0.06 0.05 0.05 0.05 0.05 0.05 0.06 0.06 0.07 0.07 0.09 0.09 0.08 0.10 0.10 0.10
0.00 0.00 0.00 0.01 0.01 0.01 0.01 0.01 0.01 0.02 0.04 0.04 0.04 0.03 0.03 0.03 0.03 0.04 0.04 0.03 0.04 0.04 0.03 0.03 0.02 0.02 0.03 0.03 0.03 0.03 0.03 0.03 0.04 0.05 0.05 0.05 0.06 0.07 0.08 0.07 0.08 0.09 0.09
0.01 0.01 0.00 0.00 0.01 0.01 0.01 0.02 0.02 0.03 0.04 0.05 0.04 0.03 0.03 0.04 0.04 0.03 0.04 0.03 0.04 0.04 0.04 0.04 0.03 0.03 0.03 0.05 0.05 0.04 0.04 0.04 0.04 0.03 0.03 0.04 0.04 0.05 0.06 0.06 0.08 0.09 0.11
0.01 0.01 0.01 0.00 0.00 0.01 0.01 0.01 0.02 0.03 0.03 0.04 0.05 0.05 0.06 0.06 0.05 0.03 0.03 0.02 0.03 0.04 0.04 0.05 0.04 0.04 0.04 0.06 0.06 0.04 0.04 0.03 0.03 0.03 0.03 0.02 0.03 0.03 0.04 0.05 0.07 0.09 0.11
0.01 0.01 0.01 0.01 0.01 0.01 0.01 0.01 0.02 0.03 0.03 0.05 0.05 0.06 0.07 0.07 0.06 0.05 0.04 0.03 0.03 0.03 0.04 0.06 0.06 0.05 0.05 0.06 0.06 0.06 0.05 0.04 0.04 0.04 0.03 0.03 0.02 0.02 0.02 0.04 0.07 0.09 0.11
0.02 0.01 0.01 0.02 0.02 0.02 0.02 0.02 0.03 0.02 0.02 0.03 0.05 0.06 0.07 0.07 0.08 0.07 0.05 0.04 0.03 0.03 0.03 0.05 0.05 0.03 0.03 0.05 0.06 0.06 0.05 0.05 0.04 0.04 0.04 0.04 0.04 0.04 0.04 0.04 0.07 0.09 0.10
0.03 0.03 0.03 0.03 0.02 0.02 0.03 0.03 0.03 0.03 0.03 0.04 0.05 0.05 0.05 0.06 0.06 0.04 0.04 0.03 0.03 0.03 0.04 0.03 0.04 0.03 0.03 0.03 0.03 0.03 0.03 0.03 0.04 0.05 0.04 0.03 0.04 0.04 0.03 0.04 0.05 0.05 0.06
0.04 0.04 0.04 0.03 0.03 0.03 0.03 0.03 0.04 0.03 0.03 0.04 0.05 0.04 0.04 0.05 0.05 0.03 0.03 0.03 0.02 0.03 0.03 0.03 0.04 0.04 0.04 0.03 0.02 0.02 0.02 0.03 0.06 0.05 0.04 0.03 0.03 0.04 0.04 0.05 0.05 0.04 0.03
0.03 0.02 0.02 0.02 0.02 0.02 0.03 0.03 0.03 0.03 0.03 0.03 0.03 0.03 0.04 0.04 0.04 0.03 0.03 0.02 0.02 0.02 0.02 0.03 0.03 0.03 0.04 0.04 0.03 0.03 0.03 0.04 0.05 0.04 0.04 0.03 0.03 0.03 0.03 0.04 0.04 0.04 0.03
0.02 0.02 0.01 0.01 0.01 0.01 0.02 0.02 0.02 0.03 0.02 0.02 0.02 0.04 0.04 0.03 0.03 0.03 0.04 0.03 0.02 0.01 0.02 0.03 0.05 0.05 0.04 0.04 0.04 0.05 0.04 0.04 0.03 0.03 0.04 0.04 0.03 0.02 0.02 0.03 0.03 0.03 0.03
0.03 0.03 0.02 0.01 0.01 0.02 0.02 0.03 0.03 0.03 0.03 0.03 0.03 0.02 0.02 0.02 0.03 0.03 0.03 0.02 0.02 0.01 0.02 0.03 0.04 0.04 0.04 0.03 0.04 0.04 0.04 0.03 0.02 0.03 0.03 0.05 0.06 0.04 0.02 0.03 0.05 0.04 0.04
0.05 0.04 0.03 0.03 0.02 0.03 0.03 0.03 0.02 0.02 0.03 0.03 0.02 0.02 0.02 0.02 0.03 0.03 0.02 0.01 0.01 0.01 0.02 0.02 0.02 0.03 0.03 0.04 0.04 0.04 0.04 0.03 0.03 0.04 0.05 0.06 0.08 0.06 0.04 0.03 0.04 0.05 0.05
0.06 0.06 0.06 0.06 0.05 0.03 0.03 0.03 0.03 0.02 0.02 0.02 0.02 0.02 0.02 0.02 0.02 0.01 0.01 0.01 0.02 0.02 0.02 0.02 0.02 0.02 0.03 0.04 0.05 0.06 0.05 0.05 0.04 0.05 0.07 0.08 0.09 0.08 0.06 0.04 0.04 0.04 0.04
0.08 0.08 0.07 0.06 0.06 0.05 0.04 0.04 0.04 0.03 0.02 0.02 0.02 0.02 0.02 0.02 0.02 0.01 0.01 0.01 0.01 0.00 0.01 0.01 0.01 0.02 0.03 0.04 0.05 0.05 0.05 0.06 0.05 0.05 0.07 0.08 0.10 0.10 0.09 0.07 0.05 0.04 0.03
0.12 0.10 0.09 0.08 0.07 0.06 0.05 0.05 0.05 0.04 0.04 0.04 0.04 0.03 0.03 0.02 0.02 0.01 0.01 0.01 0.00 0.00 0.01 0.01 0.01 0.01 0.02 0.03 0.04 0.04 0.05 0.05 0.05 0.05 0.05 0.05 0.07 0.08 0.09 0.07 0.06 0.05 0.04
0.11 0.11 0.11 0.09 0.09 0.09 0.08 0.08 0.08 0.07 0.07 0.07 0.07 0.05 0.03 0.02 0.02 0.02 0.01 0.01 0.01 0.01 0.01 0.01 0.01 0.02 0.02 0.02 0.02 0.04 0.06 0.05 0.04 0.04 0.04 0.04 0.05 0.06 0.05 0.05 0.06 0.06 0.05
0.10 0.10 0.08 0.06 0.06 0.05 0.06 0.09 0.10 0.09 0.09 0.10 0.11 0.08 0.04 0.02 0.02 0.02 0.02 0.02 0.02 0.02 0.02 0.02 0.01 0.01 0.01 0.02 0.03 0.04 0.05 0.04 0.03 0.03 0.03 0.02 0.02 0.03 0.03 0.04 0.04 0.05 0.05
0.06 0.06 0.04 0.04 0.04 0.04 0.04 0.05 0.06 0.07 0.07 0.11 0.13 0.07 0.03 0.01 0.01 0.02 0.04 0.03 0.02 0.02 0.03 0.03 0.02 0.02 0.02 0.02 0.02 0.03 0.04 0.03 0.03 0.02 0.02 0.02 0.02 0.03 0.04 0.04 0.04 0.04 0.04
0.07 0.06 0.04 0.03 0.03 0.02 0.02 0.02 0.03 0.03 0.04 0.06 0.07 0.05 0.02 0.01 0.01 0.01 0.02 0.02 0.01 0.02 0.03 0.03 0.03 0.03 0.03 0.02 0.02 0.01 0.02 0.02 0.02 0.02 0.02 0.02 0.02 0.02 0.03 0.03 0.04 0.05 0.06
0.08 0.07 0.05 0.04 0.03 0.02 0.01 0.01 0.01 0.02 0.02 0.02 0.02 0.02 0.02 0.01 0.01 0.01 0.01 0.01 0.02 0.02 0.03 0.03 0.02 0.02 0.02 0.02 0.02 0.02 0.02 0.02 0.02 0.02 0.02 0.03 0.03 0.03 0.03 0.03 0.03 0.03 0.04
0.04 0.03 0.03 0.03 0.02 0.02 0.02 0.01 0.01 0.01 0.01 0.01 0.01 0.01 0.01 0.01 0.01 0.01 0.01 0.01 0.01 0.02 0.02 0.03 0.03 0.03 0.02 0.02 0.02 0.02 0.02 0.02 0.02 0.02 0.02 0.02 0.02 0.03 0.03 0.03 0.03 0.02 0.02
MSLP
1005.43 1006.70 1007.91 1009.02 1010.00 1010.85 1011.57 1012.20 1012.76 1013.27 1013.74 1014.17 1014.57 1014.92 1015.23 1015.47 1015.68 1015.85 1016.01 1016.17 1016.35 1016.56 1016.77 1016.98 1017.17 1017.32 1017.41 1017.43 1017.39 1017.29 1017.16 1017.01 1016.86 1016.72 1016.60 1016.48 1016.36 1016.22 1016.06 1015.86 1015.64 1015.39 1015.13
1005.44 1006.74 1007.97 1009.07 1010.04 1010.86 1011.55 1012.15 1012.69 1013.18 1013.64 1014.07 1014.48 1014.84 1015.16 1015.43 1015.66 1015.85 1016.04 1016.23 1016.44 1016.67 1016.92 1017.17 1017.40 1017.59 1017.71 1017.77 1017.75 1017.67 1017.54 1017.38 1017.21 1017.04 1016.88 1016.72 1016.55 1016.37 1016.16 1015.92 1015.64 1015.34 1015.03
1005.67 1006.96 1008.15 1009.22 1010.13 1010.90 1011.56 1012.12 1012.64 1013.13 1013.59 1014.05 1014.47 1014.87 1015.21 1015.50 1015.75 1015.96 1016.15 1016.35 1016.57 1016.82 1017.08 1017.35 1017.61 1017.83 1017.98 1018.06 1018.07 1018.00 1017.88 1017.72 1017.53 1017.34 1017.15 1016.95 1016.74 1016.52 1016.27 1015.98 1015.66 1015.31 1014.95
1006.05 1007.28 1008.41 1009.41 1010.25 1010.97 1011.58 1012.12 1012.64 1013.14 1013.63 1014.12 1014.59 1015.02 1015.40 1015.71 1015.97 1016.19 1016.38 1016.56 1016.77 1017.00 1017.26 1017.53 1017.79 1018.02 1018.20 1018.30 1018.32 1018.27 1018.15 1017.98 1017.78 1017.57 1017.35 1017.12 1016.88 1016.62 1016.34 1016.02 1015.67 1015.28 1014.88
1006.48 1007.63 1008.68 1009.59 1010.37 1011.03 1011.61 1012.15 1012.68 1013.21 1013.75 1014.29 1014.81 1015.28 1015.70 1016.03 1016.29 1016.50 1016.67 1016.83 1017.00 1017.20 1017.43 1017.68 1017.93 1018.15 1018.33 1018.44 1018.47 1018.42 1018.30 1018.13 1017.92 1017.69 1017.44 1017.19 1016.92 1016.64 1016.34 1016.00 1015.63 1015.23 1014.80
1006.86 1007.93 1008.89 1009.73 1010.45 1011.08 1011.64 1012.19 1012.74 1013.31 1013.90 1014.50 1015.07 1015.59 1016.03 1016.38 1016.64 1016.83 1016.97 1017.09 1017.22 1017.38 1017.57 1017.78 1018.00 1018.21 1018.38 1018.48 1018.51 1018.46 1018.34 1018.15 1017.93 1017.67 1017.40 1017.12 1016.84 1016.54 1016.23 1015.89 1015.53 1015.13 1014.71
1007.12 1008.12 1009.02 1009.80 1010.48 1011.08 1011.65 1012.21 1012.79 1013.40 1014.04 1014.68 1015.30 1015.85 1016.31 1016.67 1016.93 1017.10 1017.22 1017.30 1017.39 1017.50 1017.64 1017.81 1018.00 1018.18 1018.33 1018.42 1018.44 1018.38 1018.25 1018.05 1017.81 1017.53 1017.23 1016.93 1016.62 1016.32 1016.00 1015.68 1015.33 1014.97 1014.58
1007.24 1008.18 1009.03 1009.78 1010.44 1011.04 1011.62 1012.20 1012.80 1013.45 1014.11 1014.78 1015.42 1015.99 1016.47 1016.83 1017.09 1017.25 1017.35 1017.41 1017.47 1017.54 1017.65 1017.79 1017.94 1018.10 1018.22 1018.29 1018.29 1018.22 1018.06 1017.84 1017.58 1017.27 1016.95 1016.62 1016.29 1015.98 1015.66 1015.36 1015.04 1014.72 1014.38
1007.23 1008.13 1008.95 1009.69 1010.36 1010.96 1011.55 1012.14 1012.76 1013.42 1014.09 1014.77 1015.41 1015.98 1016.46 1016.83 1017.09 1017.26 1017.36 1017.42 1017.47 1017.53 1017.61 1017.73 1017.85 1017.97 1018.07 1018.11 1018.08 1017.99 1017.81 1017.56 1017.26 1016.93 1016.57 1016.21 1015.87 1015.54 1015.23 1014.94 1014.66 1014.38 1014.10
1007.12 1008.00 1008.81 1009.56 1010.23 1010.85 1011.45 1012.05 1012.67 1013.32 1013.98 1014.64 1015.26 1015.83 1016.31 1016.68 1016.96 1017.15 1017.27 1017.35 1017.41 1017.48 1017.55 1017.65 1017.75 1017.83 1017.89 1017.90 1017.84 1017.71 1017.50 1017.22 1016.89 1016.52 1016.13 1015.74 1015.37 1015.03 1014.71 1014.44 1014.19 1013.97 1013.75
1006.96 1007.82 1008.64 1009.40 1010.09 1010.73 1011.34 1011.94 1012.55 1013.18 1013.81 1014.44 1015.04 1015.59 1016.06 1016.46 1016.76 1016.99 1017.15 1017.26 1017.35 1017.42 1017.49 1017.57 1017.63 1017.68 1017.69 1017.65 1017.55 1017.37 1017.13 1016.82 1016.45 1016.05 1015.63 1015.22 1014.83 1014.47 1014.15 1013.89 1013.67 1013.49 1013.32
1006.77 1007.62 1008.44 1009.21 1009.93 1010.59 1011.22 1011.82 1012.42 1013.02 1013.63 1014.22 1014.80 1015.33 1015.81 1016.22 1016.56 1016.82 1017.03 1017.17 1017.28 1017.37 1017.43 1017.48 1017.50 1017.50 1017.45 1017.35 1017.19 1016.97 1016.68 1016.34 1015.95 1015.53 1015.09 1014.66 1014.26 1013.89 1013.58 1013.33 1013.13 1012.98 1012.86
1006.55 1007.38 1008.21 1009.01 1009.75 1010.45 1011.10 1011.71 1012.31 1012.89 1013.47 1014.04 1014.60 1015.12 1015.60 1016.03 1016.40 1016.70 1016.94 1017.11 1017.23 1017.31 1017.34 1017.34 1017.31 1017.23 1017.11 1016.95 1016.74 1016.47 1016.15 1015.79 1015.39 1014.96 1014.52 1014.10 1013.69 1013.34 1013.03 1012.79 1012.60 1012.48 1012.39
1006.27 1007.09 1007.94 1008.76 1009.55 1010.29 1010.97 1011.62 1012.23 1012.81 1013.38 1013.94 1014.48 1015.00 1015.49 1015.92 1016.31 1016.63 1016.87 1017.05 1017.16 1017.21 1017.19 1017.12 1017.01 1016.86 1016.66 1016.43 1016.16 1015.86 1015.52 1015.16 1014.77 1014.36 1013.95 1013.55 1013.17 1012.83 1012.54 1012.32 1012.15 1012.03 1011.95
1005.92 1006.74 1007.60 1008.46 1009.30 1010.10 1010.84 1011.53 1012.17 1012.78 1013.36 1013.92 1014.45 1014.97 1015.45 1015.88 1016.26 1016.57 1016.81 1016.96 1017.02 1017.01 1016.93 1016.78 1016.58 1016.34 1016.08 1015.79 1015.48 1015.16 1014.83 1014.49 1014.13 1013.77 1013.41 1013.06 1012.72 1012.42 1012.16 1011.95 1011.80 1011.68 1011.60
1005.48 1006.31 1007.20 1008.11 1009.02 1009.88 1010.70 1011.44 1012.13 1012.77 1013.37 1013.94 1014.47 1014.97 1015.44 1015.85 1016.20 1016.48 1016.67 1016.77 1016.77 1016.68 1016.52 1016.29 1016.01 1015.71 1015.39 1015.06 1014.75 1014.44 1014.14 1013.84 1013.55 1013.26 1012.97 1012.68 1012.40 1012.15 1011.92 1011.73 1011.58 1011.46 1011.36
1004.99 1005.83 1006.76 1007.74 1008.71 1009.65 1010.53 1011.34 1012.08 1012.76 1013.38 1013.95 1014.47 1014.95 1015.39 1015.76 1016.06 1016.28 1016.41 1016.44 1016.37 1016.21 1015.97 1015.67 1015.34 1014.99 1014.65 1014.33 1014.04 1013.77 1013.53 1013.31 1013.09 1012.88 1012.67 1012.45 1012.23 1012.02 1011.82 1011.65 1011.49 1011.35 1011.21
1004.48 1005.35 1006.33 1007.37 1008.40 1009.41 1010.35 1011.22 1012.00 1012.70 1013.32 1013.88 1014.39 1014.83 1015.22 1015.54 1015.78 1015.93 1015.99 1015.95 1015.82 1015.60 1015.31 1014.98 1014.63 1014.28 1013.96 1013.68 1013.44 1013.24 1013.08 1012.94 1012.81 1012.68 1012.54 1012.38 1012.20 1012.02 1011.84 1011.66 1011.49 1011.32 1011.13
1004.01 1004.93 1005.96 1007.04 1008.13 1009.18 1010.15 1011.05 1011.84 1012.54 1013.15 1013.69 1014.15 1014.55 1014.88 1015.13 1015.31 1015.40 1015.40 1015.31 1015.14 1014.89 1014.59 1014.27 1013.95 1013.66 1013.40 1013.19 1013.03 1012.92 1012.85 1012.79 1012.73 1012.66 1012.56 1012.44 1012.29 1012.11 1011.92 1011.72 1011.52 1011.30 1011.06
1003.64 1004.61 1005.67 1006.78 1007.89 1008.95 1009.93 1010.82 1011.59 1012.26 1012.84 1013.32 1013.73 1014.07 1014.33 1014.53 1014.65 1014.70 1014.66 1014.55 1014.37 1014.14 1013.88 1013.62 1013.37 1013.16 1013.00 1012.89 1012.84 1012.82 1012.83 1012.83 1012.82 1012.78 1012.70 1012.58 1012.41 1012.21 1011.99 1011.75 1011.51 1011.24 1010.95
1003.39 1004.40 1005.48 1006.60 1007.70 1008.73 1009.68 1010.51 1011.23 1011.84 1012.35 1012.77 1013.11 1013.39 1013.59 1013.74 1013.83 1013.85 1013.81 1013.71 1013.57 1013.40 1013.22 1013.06 1012.92 1012.83 1012.79 1012.79 1012.84 1012.91 1012.97 1013.02 1013.02 1012.98 1012.87 1012.71 1012.49 1012.24 1011.97 1011.68 1011.38 1011.06 1010.73
1003.25 1004.28 1005.36 1006.46 1007.51 1008.48 1009.35 1010.11 1010.74 1011.27 1011.69 1012.04 1012.31 1012.53 1012.70 1012.81 1012.89 1012.91 1012.90 1012.85 1012.78 1012.71 1012.64 1012.60 1012.59 1012.63 1012.71 1012.83 1012.97 1013.10 1013.20 1013.25 1013.24 1013.15 1012.98 1012.75 1012.46 1012.13 1011.79 1011.44 1011.09 1010.74 1010.38
1003.16 1004.21 1005.27 1006.31 1007.29 1008.17 1008.94 1009.59 1010.12 1010.54 1010.89 1011.16 1011.37 1011.55 1011.69 1011.81 1011.90 1011.96 1012.00 1012.03 1012.05 1012.09 1012.15 1012.24 1012.36 1012.53 1012.73 1012.94 1013.14 1013.31 1013.41 1013.44 1013.38 1013.22 1012.97 1012.64 1012.26 1011.85 1011.43 1011.03 1010.64 1010.27 1009.91
1003.08 1004.12 1005.14 1006.12 1007.00 1007.77 1008.42 1008.95 1009.38 1009.71 1009.98 1010.19 1010.37 1010.53 1010.67 1010.81 1010.94 1011.05 1011.17 1011.29 1011.42 1011.56 1011.74 1011.95 1012.20 1012.47 1012.75 1013.03 1013.27 1013.45 1013.54 1013.52 1013.39 1013.14 1012.79 1012.37 1011.89 1011.40 1010.92 1010.48 1010.07 1009.71 1009.36
1002.96 1003.97 1004.95 1005.84 1006.62 1007.28 1007.82 1008.24 1008.57 1008.83 1009.04 1009.22 1009.39 1009.55 1009.72 1009.90 1010.08 1010.27 1010.46 1010.67 1010.89 1011.14 1011.42 1011.72 1012.06 1012.41 1012.75 1013.07 1013.32 1013.49 1013.54 1013.47 1013.27 1012.93 1012.49 1011.98 1011.42 1010.86 1010.34 1009.87 1009.46 1009.11 1008.81
1002.78 1003.77 1004.68 1005.49 1006.17 1006.72 1007.16 1007.50 1007.76 1007.97 1008.15 1008.32 1008.51 1008.71 1008.92 1009.15 1009.40 1009.66 1009.93 1010.21 1010.51 1010.83 1011.18 1011.55 1011.94 1012.34 1012.71 1013.04 1013.29 1013.43 1013.45 1013.32 1013.05 1012.64 1012.13 1011.54 1010.92 1010.32 1009.76 1009.27 1008.88 1008.56 1008.31
Thickness
5802 5799 5796 5792 5789 5785 5782 5779 5777 5774 5770 5767 5765 5763 5760 5757 5755 5752 5750 5749 5746 5744 5743 5742 5740 5739 5738 5737 5738 5737 5734 5730 5723 5725 5728 5730 5728 5726 5724 5723 5722 5719 5717
5801 5797 5793 5789 5785 5782 5779 5777 5774 5771 5768 5765 5762 5759 5756 5754 5751 5749 5746 5744 5742 5740 5738 5736 5735 5735 5733 5731 5730 5729 5728 5728 5723 5719 5720 5722 5722 5723 5721 5720 5719 5718 5716
5800 5794 5789 5785 5782 5779 5776 5774 5771 5768 5765 5762 5759 5755 5752 5750 5747 5745 5742 5740 5738 5736 5734 5732 5730 5728 5726 5725 5724 5723 5722 5723 5721 5717 5716 5717 5717 5718 5716 5716 5716 5714 5714
5798 5792 5786 5783 5780 5777 5774 5771 5768 5765 5761 5758 5755 5752 5749 5746 5743 5740 5738 5736 5733 5732 5730 5728 5725 5723 5721 5720 5719 5716 5716 5715 5714 5712 5710 5710 5709 5711 5709 5707 5707 5708 5707
5794 5788 5784 5781 5779 5775 5772 5768 5764 5761 5759 5755 5751 5748 5745 5742 5739 5736 5733 5732 5728 5726 5725 5724 5722 5719 5716 5714 5713 5710 5709 5707 5706 5705 5703 5702 5701 5700 5699 5700 5698 5700 5700
5790 5785 5782 5779 5775 5771 5768 5764 5760 5756 5754 5751 5747 5744 5741 5739 5735 5732 5729 5727 5724 5722 5720 5718 5717 5714 5711 5709 5707 5705 5703 5701 5699 5697 5696 5694 5694 5694 5693 5693 5691 5689 5689
5784 5781 5778 5774 5770 5767 5764 5760 5756 5752 5750 5747 5744 5741 5737 5733 5731 5728 5725 5722 5720 5718 5716 5713 5713 5711 5707 5703 5701 5700 5698 5697 5695 5693 5690 5689 5688 5688 5687 5686 5685 5683 5683
5779 5776 5773 5769 5765 5763 5760 5756 5752 5749 5745 5742 5740 5737 5733 5729 5726 5722 5719 5717 5716 5714 5712 5708 5706 5703 5701 5697 5695 5694 5693 5692 5691 5689 5688 5687 5686 5685 5683 5682 5681 5681 5682
5774 5771 5769 5766 5761 5758 5754 5751 5748 5745 5741 5738 5735 5732 5728 5724 5720 5717 5713 5712 5710 5708 5707 5704 5701 5697 5694 5691 5689 5688 5686 5685 5686 5684 5683 5682 5681 5680 5678 5676 5674 5673 5672
5769 5767 5765 5762 5758 5754 5750 5747 5744 5741 5737 5734 5731 5728 5724 5719 5715 5711 5708 5706 5704 5702 5700 5698 5695 5692 5687 5684 5682 5681 5679 5678 5678 5677 5676 5675 5675 5675 5674 5671 5669 5666 5665
5765 5762 5759 5757 5754 5751 5747 5743 5740 5736 5732 5729 5725 5723 5720 5715 5710 5707 5703 5701 5698 5696 5694 5693 5690 5686 5682 5679 5676 5675 5674 5672 5671 5670 5670 5670 5671 5671 5670 5668 5666 5663 5660
5759 5755 5753 5750 5749 5747 5741 5737 5734 5730 5726 5722 5718 5716 5714 5710 5706 5701 5697 5694 5692 5690 5689 5688 5685 5681 5678 5675 5672 5671 5669 5667 5666 5665 5664 5663 5664 5664 5664 5663 5662 5660 5658
5751 5748 5746 5745 5743 5741 5736 5732 5727 5724 5720 5716 5713 5710 5708 5706 5701 5696 5692 5689 5686 5684 5684 5681 5678 5676 5673 5671 5669 5666 5664 5662 5661 5659 5658 5658 5659 5659 5659 5658 5657 5655 5654
5744 5742 5740 5738 5736 5734 5731 5728 5723 5719 5715 5711 5708 5705 5702 5699 5695 5690 5686 5683 5680 5678 5676 5675 5673 5671 5669 5666 5664 5662 5661 5659 5657 5655 5654 5654 5654 5653 5652 5651 5649 5648 5646
5737 5735 5734 5732 5730 5727 5724 5721 5719 5715 5711 5706 5705 5702 5696 5692 5687 5683 5680 5678 5675 5672 5669 5668 5668 5667 5665 5663 5661 5659 5656 5654 5651 5650 5649 5647 5646 5645 5644 5644 5642 5641 5639
5729 5727 5726 5726 5724 5721 5717 5713 5710 5707 5703 5700 5698 5694 5691 5687 5682 5678 5675 5672 5669 5666 5663 5663 5662 5662 5660 5657 5655 5652 5650 5648 5646 5644 5642 5640 5639 5638 5637 5636 5635 5633 5631
5723 5721 5721 5720 5718 5715 5712 5708 5703 5698 5694 5692 5690 5687 5683 5679 5676 5672 5669 5666 5663 5660 5658 5658 5658 5656 5654 5652 5650 5647 5644 5642 5640 5638 5636 5634 5632 5631 5629 5628 5626 5625 5624
5717 5716 5714 5713 5711 5709 5707 5704 5701 5696 5690 5686 5682 5679 5676 5672 5669 5666 5662 5659 5658 5656 5655 5654 5653 5652 5650 5647 5644 5641 5638 5636 5633 5631 5629 5627 5625 5624 5622 5621 5620 5618 5616
5709 5708 5707 5706 5704 5702 5699 5697 5694 5691 5687 5682 5679 5673 5668 5665 5661 5658 5656 5655 5655 5654 5653 5651 5649 5647 5645 5641 5638 5635 5632 5630 5628 5625 5623 5620 5618 5616 5615 5614 5613 5611 5609
5700 5699 5698 5697 5696 5694 5692 5689 5686 5682 5679 5676 5673 5669 5664 5660 5658 5655 5652 5652 5651 5650 5648 5646 5644 5642 5639 5636 5633 5630 5627 5624 5621 5619 5616 5613 5611 5608 5606 5605 5605 5603 5601
5693 5692 5691 5690 5688 5686 5684 5682 5679 5676 5673 5671 5668 5665 5660 5658 5656 5654 5651 5649 5647 5645 5643 5641 5638 5636 5634 5631 5627 5623 5620 5617 5614 5611 5608 5606 5603 5601 5599 5598 5597 5595 5593
5684 5685 5685 5684 5682 5679 5676 5674 5672 5669 5668 5667 5664 5660 5655 5654 5653 5651 5648 5646 5644 5641 5639 5635 5632 5630 5627 5624 5620 5617 5613 5609 5606 5603 5601 5598 5596 5594 5592 5590 5589 5587 5586
5676 5676 5675 5675 5673 5670 5668 5667 5665 5664 5662 5660 5658 5654 5650 5649 5648 5646 5643 5640 5638 5636 5633 5629 5626 5623 5620 5617 5613 5610 5605 5601 5599 5596 5593 5591 5589 5588 5586 5584 5583 5581 5579
5667 5667 5666 5665 5663 5663 5662 5660 5659 5658 5657 5655 5652 5649 5647 5645 5643 5640 5638 5635 5632 5629 5626 5623 5620 5616 5613 5609 5606 5602 5598 5595 5592 5590 5587 5585 5583 5582 5580 5578 5577 5576 5573
5660 5659 5658 5656 5655 5654 5654 5653 5652 5651 5650 5648 5646 5643 5641 5639 5636 5634 5632 5629 5625 5622 5619 5616 5613 5609 5606 5602 5598 5594 5591 5587 5584 5582 5581 5579 5578 5576 5574 5572 5571 5570 5568
5652 5651 5650 5649 5647 5646 5646 5645 5645 5644 5642 5641 5639 5637 5634 5632 5629 5627 5625 5622 5619 5616 5613 5610 5606 5603 5599 5595 5590 5586 5583 5580 5578 5575 5573 5572 5571 5569 5568 5566 5566 5564 5564